Theta_e
318 318 318 319 319 319 320 320 320 320 319 318 318 316 315 316 317 318 320 333 334 333 336 341 338 340 340 340 339 342 343 344 345 346 348 346 346 346 347 345 345 344 342 341 341
317 317 317 318 318 319 319 319 320 320 319 319 318 316 315 316 317 319 323 328 331 333 337 339 336 335 338 339 340 338 343 342 341 343 344 345 347 347 345 345 345 343 342 341 341
318 317 317 317 317 318 318 319 319 320 320 319 318 317 316 317 318 321 322 327 329 334 340 337 335 335 337 339 339 342 343 341 342 342 343 344 344 347 346 346 345 344 342 341 341
318 318 318 318 317 317 317 318 319 319 320 319 318 318 319 319 336 328 325 324 330 336 340 335 335 336 337 338 337 341 342 342 341 342 343 347 346 347 347 346 345 344 343 342 341
319 319 318 318 318 317 317 318 318 319 319 319 319 318 321 326 325 334 326 328 337 338 341 336 335 336 338 337 337 339 342 342 342 343 346 345 346 347 345 346 345 343 343 343 342
319 319 319 319 318 318 317 317 318 319 319 319 319 319 321 330 333 330 330 337 338 340 335 334 335 336 339 337 337 338 342 344 344 345 345 347 347 346 345 345 345 343 342 343 342
318 318 319 319 318 318 318 317 318 319 319 319 319 319 321 327 332 331 338 339 340 334 334 335 337 336 336 338 341 342 344 345 344 344 343 338 340 347 344 345 345 344 344 345 345
318 318 318 318 319 318 318 318 318 319 319 319 320 320 323 328 331 330 338 338 335 334 335 336 336 336 336 338 341 342 340 342 345 344 342 341 343 337 343 344 346 347 347 346 343
319 317 317 318 318 318 318 318 318 319 319 320 322 332 329 331 330 330 334 335 334 336 336 336 336 336 336 336 339 341 343 342 343 340 343 344 342 337 342 340 347 347 334 338 343
321 319 316 317 318 318 318 318 319 319 319 321 324 329 325 331 329 330 335 336 336 337 337 337 338 334 334 337 341 340 340 342 343 342 344 345 343 339 339 341 346 347 338 340 339
322 321 316 317 318 318 318 319 329 325 320 325 322 326 330 329 328 330 335 336 336 336 336 339 336 337 338 338 338 340 339 340 342 341 348 346 345 343 340 342 346 347 342 343 339
322 321 317 317 318 318 317 319 327 327 327 329 330 326 325 326 328 331 335 336 335 335 337 336 335 336 339 339 339 339 340 340 341 341 339 345 346 343 339 341 347 347 347 345 347
322 321 318 317 317 323 325 322 324 325 326 327 329 328 328 328 329 331 333 336 336 335 336 336 337 340 341 340 341 339 338 338 337 338 336 338 338 349 346 342 345 347 349 349 349
322 321 319 317 320 326 325 326 325 325 325 325 325 329 328 327 328 329 330 334 336 336 336 336 338 339 337 339 339 333 336 337 338 337 339 333 341 343 340 339 343 345 349 350 350
321 320 319 318 318 320 325 326 325 326 331 329 326 328 327 327 328 328 329 333 335 336 336 337 338 339 339 338 338 335 336 336 336 332 337 338 340 341 342 342 341 339 344 349 349
321 320 319 318 318 320 321 324 325 328 332 329 328 326 325 327 327 327 328 332 334 334 335 337 339 339 339 339 338 336 336 335 333 334 337 338 339 343 346 340 338 337 340 347 346
321 319 318 318 319 326 324 324 327 330 331 328 326 325 324 324 325 324 326 328 327 330 332 334 335 337 339 337 338 337 332 333 337 337 338 334 339 345 340 341 336 338 344 348 348
320 318 319 320 318 325 324 325 331 332 328 330 326 326 324 324 324 325 325 325 326 326 329 332 333 334 336 337 337 334 330 331 339 337 338 338 350 350 341 340 337 344 349 348 348
319 320 323 325 319 322 324 327 330 331 330 330 328 327 326 325 324 325 324 326 326 325 326 327 329 331 332 333 333 332 332 330 332 332 333 349 349 346 344 346 348 347 347 346 349
319 324 326 331 322 323 325 325 327 328 328 330 330 329 325 324 324 324 325 327 327 325 325 324 323 326 329 331 331 330 330 330 332 333 346 353 351 351 346 347 346 346 348 346 354
320 331 332 328 323 324 324 325 326 327 328 329 329 328 327 329 325 325 326 327 327 327 325 323 322 325 327 328 328 329 328 328 329 329 331 343 343 340 344 340 341 339 350 347 356
325 331 331 326 325 324 324 324 325 326 327 328 328 327 327 329 330 326 327 328 329 328 326 324 322 323 325 327 327 326 327 328 331 330 331 336 344 339 340 344 344 345 348 349 355
322 328 329 325 325 324 325 325 325 325 326 328 327 326 327 328 331 333 329 329 329 327 326 326 324 323 324 326 329 327 328 328 328 329 339 336 343 340 341 338 336 335 342 351 351
325 334 332 327 326 324 326 330 330 326 327 327 327 326 328 328 330 332 333 329 329 329 327 327 324 323 324 331 331 332 330 329 330 328 339 334 343 338 341 340 338 334 337 349 347
327 332 332 337 334 329 326 326 329 331 329 327 326 326 327 330 333 332 337 329 328 326 327 323 324 326 324 332 332 335 335 333 332 329 334 338 337 337 340 342 345 344 349 347 343
330 330 328 329 330 333 332 333 330 332 334 329 326 326 327 329 331 340 340 337 339 333 326 325 324 329 328 331 334 335 335 334 333 333 330 338 339 336 336 339 340 345 350 348 343
329 328 328 329 329 330 335 335 333 335 335 333 334 328 330 334 337 336 337 336 336 336 328 324 324 325 327 331 333 336 337 337 333 335 336 338 339 338 337 339 342 350 352 348 344
Wind_Speed
13 13 14 15 15 16 16 16 16 16 17 17 15 12 8 6 7 9 11 10 12 6 10 8 10 12 16 26 16 20 1 4 12 11 6 12 11 18 17 23 21 9 30 32 25
13 14 14 15 16 16 16 16 15 15 16 16 15 11 8 6 7 13 10 11 7 9 9 8 18 20 26 21 8 5 4 8 10 10 7 7 11 17 18 24 25 28 29 28 25
14 15 15 16 16 16 16 16 15 15 15 15 14 10 8 7 6 12 14 9 12 10 11 11 13 22 23 19 14 10 8 8 16 19 24 18 19 15 22 17 28 30 30 27 25
15 15 16 16 17 17 16 16 15 14 14 14 13 10 8 4 1 5 11 11 12 13 12 13 14 19 7 9 12 11 14 17 11 18 19 18 18 23 23 21 27 27 27 27 23
16 16 17 17 17 17 16 15 14 13 12 12 12 9 7 5 13 7 12 12 13 14 15 15 21 26 16 4 6 10 9 25 12 23 23 21 15 13 20 21 23 24 25 26 23
17 17 18 18 18 17 17 15 13 11 11 11 10 9 7 6 1 3 13 13 14 14 16 15 23 28 11 4 7 15 19 23 27 17 22 15 9 14 18 20 21 25 23 22 23
18 18 18 19 19 18 17 15 11 10 9 9 9 9 9 14 3 5 11 14 15 12 17 20 26 16 18 1 17 25 20 15 25 21 8 9 5 2 7 18 19 21 26 18 16
19 19 19 20 20 19 17 14 9 7 8 7 6 9 10 7 5 12 11 11 13 8 14 17 16 15 19 4 7 6 4 7 10 10 3 7 4 7 11 2 25 27 15 9 11
21 20 20 20 20 19 16 13 8 6 6 6 3 5 12 6 13 14 13 14 12 12 14 15 13 16 22 7 7 9 3 5 6 16 4 2 7 17 16 6 11 40 30 11 17
21 21 20 19 20 19 13 10 7 6 5 6 6 6 14 16 13 15 16 16 17 13 18 19 16 5 6 5 9 5 8 10 8 5 10 7 10 11 13 15 31 26 39 25 20
22 22 20 18 18 19 11 7 7 2 10 12 10 17 3 10 13 17 17 17 18 19 8 18 3 3 6 3 8 5 18 11 13 18 13 17 9 10 33 32 26 34 34 35 32
22 23 22 18 16 15 11 7 10 13 9 19 26 27 29 13 14 20 20 21 18 8 10 8 8 10 8 14 13 8 9 11 13 17 9 15 12 20 32 27 31 33 28 38 27
23 23 22 17 14 4 9 8 8 10 8 16 21 26 26 14 17 16 20 24 10 10 10 12 13 11 8 15 16 14 12 8 9 7 5 8 2 16 11 18 11 7 26 29 30
23 23 23 19 8 7 6 13 6 10 4 7 11 22 23 15 10 19 23 21 9 13 13 9 6 7 17 15 20 3 11 5 7 2 5 2 3 4 5 7 2 5 21 24 21
23 23 21 20 15 12 7 1 8 4 3 8 15 8 17 23 4 19 23 27 14 14 8 15 11 11 11 22 21 5 6 6 6 3 8 4 4 6 8 5 5 8 4 11 17
23 22 22 18 13 4 6 5 8 1 6 5 11 9 12 18 22 12 20 30 21 15 15 15 15 4 5 20 17 10 2 1 3 5 3 8 6 4 5 8 7 7 11 7 17
24 21 23 16 9 1 3 10 1 4 7 10 10 10 12 10 16 11 10 10 8 5 9 13 9 12 18 13 9 11 3 3 5 4 5 6 7 4 24 24 9 5 7 22 23
25 20 16 12 11 8 0 2 5 10 9 1 10 10 9 10 11 11 8 8 9 9 7 9 12 7 9 11 11 5 7 5 5 4 4 6 4 6 25 23 20 8 18 18 14
25 17 10 1 9 11 6 4 6 6 14 10 12 12 8 10 8 13 12 11 9 11 11 8 9 14 11 12 5 8 5 9 6 5 5 4 4 4 8 12 13 19 22 14 22
26 17 11 7 7 12 3 6 7 14 18 11 6 5 8 11 11 8 9 9 9 11 12 13 7 12 15 10 8 9 7 4 3 3 5 2 4 5 3 11 12 11 20 21 24
18 7 11 12 10 9 4 6 11 26 23 4 9 11 11 5 12 11 10 10 15 15 15 12 6 20 7 5 10 3 5 5 2 4 5 4 5 2 2 8 5 12 16 22 24
4 3 14 14 7 6 6 6 10 23 28 1 6 7 12 13 6 13 12 10 23 22 9 12 6 7 12 9 11 9 10 10 5 9 2 6 2 3 3 4 14 6 13 17 24
11 9 12 16 4 7 12 13 22 19 16 2 5 8 13 11 7 8 10 15 17 9 10 6 4 5 11 7 4 7 9 9 6 4 3 5 4 3 7 8 7 28 21 14 27
6 3 9 17 18 11 12 13 14 23 4 11 13 15 10 10 9 8 12 5 11 5 5 6 4 7 7 8 2 3 8 9 7 2 4 6 8 6 10 4 8 27 34 30 31
4 2 3 3 4 12 11 15 15 7 8 14 9 12 10 7 9 8 13 1 9 10 4 6 6 6 9 6 4 4 10 14 8 9 6 7 9 14 12 14 9 23 33 36 34
5 7 10 20 18 13 13 4 8 13 7 5 9 12 10 8 7 3 2 6 4 11 5 2 6 3 7 7 6 4 8 21 4 8 8 11 4 12 21 24 37 34 35 35 37
7 12 8 11 9 10 4 4 8 8 12 17 15 10 9 3 10 6 9 11 2 3 5 5 3 1 6 9 7 8 7 6 4 13 4 4 8 11 19 28 33 37 39 40 39
Wind_Direction
344 340 337 334 333 332 333 334 335 336 337 340 338 333 317 282 244 236 225 192 237 272 253 259 271 274 278 272 282 113 14 80 85 93 159 100 112 115 113 132 145 133 140 146 150
344 341 336 332 329 329 328 328 329 331 334 337 337 331 318 293 255 239 187 204 243 256 260 276 301 298 269 263 238 92 90 80 103 101 96 115 134 131 112 98 113 125 137 147 155
344 342 338 334 330 327 326 324 324 326 329 333 333 328 317 311 290 245 209 206 239 239 232 266 287 297 299 288 109 90 90 80 81 86 75 52 41 109 128 119 124 132 142 157 159
344 341 338 336 332 328 324 321 320 321 323 328 329 321 316 298 282 234 210 226 225 218 230 256 294 294 287 281 126 107 133 117 98 100 90 64 45 76 86 122 141 145 151 158 160
341 340 337 335 333 329 325 319 317 314 316 322 323 317 319 276 259 232 210 202 208 213 227 251 277 277 276 313 133 103 117 94 75 104 95 88 60 90 102 125 138 146 158 163 173
337 337 336 334 332 329 324 318 312 306 309 315 316 311 304 264 88 224 180 198 201 215 233 262 265 285 236 259 59 138 86 67 35 58 65 72 58 110 123 134 149 156 164 178 178
334 334 333 331 330 327 323 315 308 299 298 305 309 306 280 234 33 206 196 200 196 216 259 285 300 317 330 289 86 94 94 58 73 297 7 86 11 104 131 151 167 151 158 155 142
332 332 331 329 327 325 321 312 301 288 288 293 303 310 267 270 229 237 212 204 212 256 274 293 319 307 300 184 83 94 31 118 197 182 254 93 258 275 237 237 99 92 40 354 123
331 330 330 328 325 324 321 308 288 272 274 280 287 310 273 227 211 209 213 213 232 258 266 276 296 289 295 279 49 37 46 14 299 180 117 70 251 252 208 253 72 147 201 212 179
332 330 328 326 324 323 321 299 274 254 251 264 232 293 242 225 219 201 209 216 225 243 259 263 263 268 336 76 137 192 289 239 225 285 155 184 263 292 265 185 200 173 179 213 199
332 330 328 326 323 322 321 304 330 228 227 221 212 216 322 181 191 202 203 216 239 241 245 262 271 121 98 314 168 188 220 228 222 250 156 201 212 48 316 306 207 183 182 183 193
331 331 330 326 317 315 310 281 1 329 294 275 262 253 264 253 192 201 199 212 231 243 242 272 242 176 78 343 278 196 222 221 224 226 162 186 186 180 207 251 245 181 173 180 180
330 330 330 327 316 309 315 266 346 333 292 285 239 237 246 240 192 194 212 211 219 241 237 230 250 100 84 257 255 232 202 226 226 123 62 127 68 183 219 247 39 167 182 176 178
329 328 329 331 308 280 311 7 336 306 299 255 208 227 244 223 270 214 211 217 229 237 243 249 243 135 286 272 255 212 179 280 277 153 201 173 210 187 306 333 36 46 164 168 183
327 325 324 324 301 283 338 4 326 289 292 151 181 196 210 177 203 225 213 211 219 239 223 246 134 153 222 253 278 179 161 202 262 10 88 316 86 288 339 323 249 257 327 145 144
323 321 315 314 292 303 270 339 320 280 247 159 151 178 182 211 227 238 222 205 221 246 260 265 156 60 261 281 261 282 265 192 320 92 52 235 105 321 305 235 277 269 242 164 145
318 318 303 288 258 296 267 269 246 232 262 150 160 177 186 194 224 223 211 191 193 231 264 274 251 174 191 265 278 284 323 344 6 359 220 144 100 239 234 252 235 245 233 115 127
320 317 297 279 225 213 72 284 247 258 240 137 162 171 176 205 208 238 205 204 199 222 250 229 271 207 253 209 211 239 182 155 188 214 247 74 46 170 215 219 204 248 120 111 124
326 323 271 221 198 180 237 224 222 235 342 348 155 166 185 211 198 215 236 200 206 200 230 253 247 255 232 245 181 279 308 207 165 273 53 136 95 33 99 142 149 129 127 141 136
330 324 272 223 191 165 219 248 265 311 304 336 333 191 171 203 203 200 203 195 221 210 201 256 287 267 252 201 229 174 241 356 320 232 148 146 158 206 112 145 148 153 155 153 142
335 313 143 175 134 193 220 246 277 271 280 326 315 329 327 289 198 214 222 218 204 223 200 225 197 277 324 181 193 218 256 288 247 158 166 163 243 220 209 91 69 12 139 149 145
353 267 190 172 186 213 236 243 256 278 286 87 300 303 293 299 293 210 219 207 206 209 211 211 188 251 246 252 173 189 191 221 142 274 183 139 150 243 54 166 72 44 328 164 149
333 276 197 186 233 234 246 243 252 273 281 321 284 248 272 285 322 315 234 206 243 178 194 216 224 277 324 308 178 190 228 215 211 255 207 123 173 107 134 128 245 233 233 185 160
316 284 196 207 239 282 297 288 273 253 255 291 291 295 290 290 292 286 317 157 101 123 68 79 220 176 217 231 345 291 245 256 218 217 192 185 144 183 200 161 207 213 226 194 165
249 318 9 307 303 292 257 275 300 305 272 208 269 276 283 307 313 307 359 6 153 131 150 141 234 250 254 252 264 359 279 272 229 238 163 199 166 172 189 148 167 258 204 160 168
308 359 332 299 301 289 289 277 294 314 38 266 197 252 277 280 272 351 70 20 44 327 183 217 255 257 284 242 211 160 282 298 192 297 251 150 147 156 160 147 169 212 158 164 171
335 348 329 297 301 310 2 36 4 349 313 334 330 235 254 307 21 195 157 158 341 332 268 208 187 246 267 278 221 219 308 315 257 34 36 82 162 144 170 183 192 186 165 170 177